Location: Melbourne
(37.8170°S, 144.9670°E)
Time: 05:14:43
(UTC+10:00)

Transit 2A - All Passes

Search period start: 28 June 2017 00:00
Search period end: 08 July 2017 00:00
Orbit: 599 x 960 km, 66.7° (Epoch: 26 June)

Date Brightness Start Highest point End Pass type
(mag) Time Alt. Az. Time Alt. Az. Time Alt. Az.
28 Jun - 02:58:55 10° S 03:01:35 14° SE 03:04:08 10° ESE night (unlit)
28 Jun - 04:40:25 10° SSW 04:45:43 89° WNW 04:50:25 10° NNE visible
28 Jun - 17:36:08 10° NE 17:40:03 17° ENE 17:43:56 10° ESE visible
28 Jun - 19:16:18 10° NNW 19:22:40 76° WSW 19:28:55 10° SSE visible
28 Jun - 21:03:21 10° WSW 21:06:54 15° SW 21:10:23 10° S visible
29 Jun - 04:06:26 10° SSW 04:11:40 61° ESE 04:16:20 10° NE visible
29 Jun - 05:51:41 10° WSW 05:54:04 13° WNW 05:56:23 10° NW visible
29 Jun - 17:04:39 10° ENE 17:06:17 11° E 17:07:56 10° E daylight
29 Jun - 18:42:16 10° NNW 18:48:39 79° ENE 18:54:54 10° SSE visible
29 Jun - 20:27:57 10° W 20:32:32 20° SW 20:37:01 10° S visible
30 Jun - 03:32:33 10° SSW 03:37:33 40° SE 03:42:02 10° NE night (unlit)
30 Jun - 05:16:33 10° WSW 05:20:20 21° WNW 05:23:51 10° NNW visible
30 Jun - 18:08:29 10° N 18:14:41 56° ENE 18:20:46 10° SE visible
30 Jun - 19:52:56 10° WNW 19:58:15 27° SW 20:03:26 10° S visible
01 Jul - 02:58:48 10° S 03:03:21 28° SE 03:07:29 10° ENE night (unlit)
01 Jul - 04:41:59 10° SW 04:46:32 33° WNW 04:50:41 10° N night (unlit)
01 Jul - 17:34:56 10° N 17:40:45 39° ENE 17:46:30 10° SE visible
01 Jul - 19:18:12 10° WNW 19:24:02 37° SW 19:29:43 10° SSE visible
02 Jul - 02:25:11 10° S 02:29:04 20° SE 02:32:40 10° E night (unlit)
02 Jul - 04:07:40 10° SW 04:12:40 51° WNW 04:17:10 10° N night (unlit)
02 Jul - 17:01:41 10° NNE 17:06:53 27° ENE 17:12:02 10° SE daylight
02 Jul - 18:43:42 10° NW 18:49:53 50° WSW 18:55:53 10° SSE visible
02 Jul - 20:33:36 10° SW 20:34:31 10° SW 20:35:26 10° SSW visible
03 Jul - 01:51:50 10° S 01:54:43 14° SE 01:57:26 10° ESE night (unlit)
03 Jul - 03:33:31 10° SSW 03:38:43 81° WNW 03:43:22 10° NNE night (unlit)
03 Jul - 16:28:51 10° NNE 16:33:04 19° ENE 16:37:15 10° ESE daylight
03 Jul - 18:09:25 10° NW 18:15:47 70° WSW 18:21:58 10° SSE visible
03 Jul - 19:56:53 10° WSW 20:00:04 14° SW 20:03:11 10° SSW visible
04 Jul - 01:19:25 10° SSE 01:20:17 10° SE 01:21:09 10° SE night (unlit)
04 Jul - 02:59:30 10° SSW 03:04:42 67° ESE 03:09:21 10° NE night (unlit)
04 Jul - 04:45:18 10° W 04:47:01 12° WNW 04:48:41 10° WNW night (unlit)
04 Jul - 15:56:53 10° NE 15:59:19 12° ENE 16:01:43 10° E daylight
04 Jul - 17:35:21 10° NNW 17:41:44 85° ENE 17:47:58 10° SSE visible
04 Jul - 19:21:22 10° W 19:25:42 19° SW 19:29:54 10° S visible
05 Jul - 02:25:36 10° SSW 02:30:36 44° SE 02:35:06 10° NE night (unlit)
05 Jul - 04:09:51 10° WSW 04:13:17 19° WNW 04:16:32 10° NNW night (unlit)
05 Jul - 17:01:30 10° NNW 17:07:45 61° ENE 17:13:51 10° SE daylight
05 Jul - 18:46:16 10° WNW 18:51:23 25° SW 18:56:22 10° S visible
06 Jul - 01:51:49 10° S 01:56:25 30° SE 02:00:36 10° ENE night (unlit)
06 Jul - 03:35:10 10° SW 03:39:30 29° WNW 03:43:29 10° NNW night (unlit)
06 Jul - 16:27:54 10° N 16:33:50 42° ENE 16:39:38 10° SE daylight
06 Jul - 18:11:28 10° WNW 18:17:10 34° SW 18:22:41 10° S visible
07 Jul - 01:18:11 10° S 01:22:09 21° SE 01:25:50 10° E night (unlit)
07 Jul - 03:00:48 10° SW 03:05:39 46° WNW 03:10:03 10° N night (unlit)
07 Jul - 15:54:33 10° NNE 15:59:57 30° ENE 16:05:13 10° SE daylight
07 Jul - 17:36:54 10° NW 17:43:00 46° WSW 17:48:53 10° SSE visible
